Location: ????????
(55.0559°N, 39.1270°E)
Time: 01:40:20
(UTC+00:00)

CBERS-1 - Pass Details

Date: 15 November 2025
Orbit: 765 x 772 km, 98.8° (Epoch: 12 December)

Event Time Altitude Azimuth Distance (km) Brightness Sun altitude
Rises 03:33:32 0° 16° (NNE) 3,263 7.3 -11.6°
Reaches altitude 10° 03:35:52 10° 18° (NNE) 2,331 6.5 -11.2°
Maximum altitude 03:41:01 82° 106° (ESE) 788 4.2 -10.5°
Drops below altitude 10° 03:46:08 10° 195° (SSW) 2,311 6.5 -9.8°
Sets 03:48:25 0° 196° (SSW) 3,233 7.3 -9.5°
